Content
SEND FEEDBACK

Daily
Averages
Monthly
Summary
United States of America

PARTRIDGE, KANSAS


Home > North America > United States > Kansas
Elevation: 1549 feet     Latitude: 37 56N     Longitude: 098 02W

WEATHER
 
SELECT A DAY
Number of Records: 189,174;   Date Range: 1/1/95 - 9/16/14
 
SHARE

PRINT THIS DATA

[ ← Previous Day ]
WEATHER ALMANAC - JANUARY 31, 2013
[ Next Day → ]
[ °C ]   °F
Weather ElementAverageHighLow
Temperature21.7 °F27 °F (7:52 am)12.9 °F (9:52 pm)
Dewpoint12.8 °F19.9 °F (7:52 am)6.1 °F (6:52 pm)
Humidity69 %85 % (4:52 am)57 % (5:52 pm)
Barometer30.24 in30.47 in (8:52 pm)29.98 in (1:52 am)
Wind Speed8 mph19.6 mph (12:52 pm)
Wind Gust29.9 mph (12:52 pm)
Weather ElementAverage
Visibility10 mi
Wind DirectionESE (111.4 °)

Weather ElementTotal
Precipitation---
Heating Degree Days45.1 (Base 65)
Averaged from 22 records on January 31, 2013
WEATHER CONDITIONS BREAKOUT
WIND DIRECTION BREAKOUT
WEATHER BY HOUR - JANUARY 31, 2013
[ °C ]   °F
Local TimeTemperatureDewpointHumidityBarometerVisibilityWind DirectionWind SpeedGust SpeedPrecipitationEventsConditions
1:52 AM25.0 °F16.0 °F69 %29.98 in10.0 miWSW (240°)5.8 mphClear
2:52 AM21.0 °F15.1 °F78 %30.00 in10.0 miCalmClear
3:52 AM18.0 °F12.9 °F81 %30.00 in10.0 miNW (310°)6.9 mphClear
4:52 AM19.9 °F16.0 °F85 %30.00 in10.0 miNW (320°)3.5 mphClear
5:52 AM23.0 °F18.0 °F81 %30.01 in10.0 miNW (320°)4.6 mphClear
6:52 AM23.0 °F17.1 °F78 %30.03 in10.0 miNW (310°)6.9 mphClear
7:52 AM27.0 °F19.9 °F75 %30.06 in10.0 miNorth (10°)9.2 mphPartly Cloudy
8:52 AM25.0 °F18.0 °F75 %30.14 in10.0 miNorth (10°)12.7 mph19.6 mphMostly Cloudy
9:52 AM26.1 °F17.1 °F69 %30.19 in10.0 miNNE (20°)12.7 mph24.2 mphMostly Cloudy
10:52 AM27.0 °F18.0 °F69 %30.25 in10.0 miNorth (350°)9.2 mphMostly Cloudy
11:52 AM27.0 °F17.1 °F66 %30.27 in10.0 miNNE (20°)15.0 mph21.9 mphOvercast
12:52 PM25.0 °F16.0 °F69 %30.29 in10.0 miNorth (10°)19.6 mph29.9 mphClear
2:52 PM25.0 °F12.0 °F58 %30.33 in10.0 miNNE (20°)18.4 mph24.2 mphClear
3:52 PM25.0 °F12.0 °F58 %30.35 in10.0 miNNE (20°)13.8 mphClear
4:52 PM23.0 °F10.0 °F58 %30.37 in10.0 miNNE (20°)13.8 mphClear
5:52 PM19.9 °F7.0 °F57 %30.39 in10.0 miNNE (20°)9.2 mphClear
6:52 PM16.0 °F6.1 °F65 %30.44 in10.0 miNorth (10°)5.8 mphClear
7:52 PM17.1 °F6.1 °F62 %30.45 in10.0 miNorth (360°)4.6 mphClear
8:52 PM16.0 °F6.1 °F65 %30.47 in10.0 miCalmClear
9:52 PM12.9 °F6.1 °F74 %30.47 in10.0 miCalmClear
10:52 PM17.1 °F7.0 °F65 %30.44 in10.0 miEast (80°)4.6 mphOvercast
11:52 PM18.0 °F7.0 °F62 %30.45 in10.0 miCalmOvercast
Hourly data recorded from KHUT, located miles away from Partridge, Kansas







STORIES FROM OUR PARTNERS